{"data":{"norad_id":57217,"intl_designator":"2023-091AV","name":"KUZGTU 1 (RS47S)","alt_names":[],"object_type":"PAYLOAD","status":"ACTIVE","operator":null,"country":"CIS","launch_date":"2023-06-27","launch_site_code":"VOSTO","launch_vehicle":null,"mission":null,"orbit_class":"UNKNOWN","rcs_meters":null,"size_class":null,"mass_kg":null,"dimensions":null,"purposes":["comms"],"wikipedia_slug":null,"has_3d_model":false,"image_url":null,"decayed_at":null,"tle_current":{"epoch":"2026-09-19T22:41:46.939488Z","epoch_age_seconds":62309,"freshness":"FRESH","line1":"1 57217U 23091AV  26262.94568217  .00008615  00000+0  28308-3 0  9990","line2":"2 57217  97.4968 328.4711 0011738 117.7808 242.4624 15.31742525178875","mean_motion":15.31742525,"eccentricity":0.0011738,"inclination_deg":97.4968,"raan_deg":328.4711,"arg_perigee_deg":117.7808,"mean_anomaly_deg":242.4624,"bstar":0.00028308,"rev_number":17887,"period_min":94.010577920072,"perigee_km":462.57417032233,"apogee_km":478.65229637013,"semimajor_km":6848.7502333462,"source":"CELESTRAK","updated_at":"2026-09-20T09:00:45.239105Z"}}}